Regional Weather Roundup
Issued by NWS

Home | Current Version | Previous Version | Graphics & Text | Print | Product List | Glossary On
Versions: 1 2 3 4 5 6 7 8 9 10 11 12 13 14 15 16 17 18 19 20 21 22 23 24 25 26 27 28 29 30 31 32 33 34 35 36 37 38 39 40 41 42 43 44 45 46 47 48 49 50
000
ASUS43 KDMX 250901
RWRIA

WEATHER ROUNDUP FOR IOWA
NATIONAL WEATHER SERVICE DES MOINES IA
400 AM CDT SUN JUN 25 2017

NOTE: "FAIR" INDICATES FEW OR NO CLOUDS BELOW 12,000 FEET WITH NO
SIGNIFICANT WEATHER AND/OR OBSTRUCTIONS TO VISIBILITY.

* - THESE STATIONS ARE NOT NWS STATIONS...THUS NOT UNDER NWS
QUALITY CONTROL.  THEY ALSO DO NOT REPORT WEATHER SUCH
AS PRECIPITATION OR FOG.

IAZ001>003-012>014-020>022-031>034-043>046-251000-
   NORTHWEST IOWA

CITY           SKY/WX    TMP DP  RH WIND       PRES   REMARKS
CARROLL *      CLEAR     50  43  76 W8        30.21R
CHEROKEE *     PTCLDY    48  44  85 W3        30.22F
DENISON *        N/A    N/A N/A N/A CALM      30.24S
LE MARS *      PTCLDY    48  43  81 CALM      30.25R
ORANGE CITY *  PTCLDY    46  43  87 W3        30.23R
SHELDON *      PTCLDY    48  45  87 W7        30.20S
SIOUX CITY     PTCLDY    48  42  80 W5        30.26R
SPENCER        CLEAR     50  45  83 W9        30.19S
STORM LAKE *   CLEAR     46  41  81 W10       30.21S
$$

IAZ055>058-069>071-079>083-090>094-251000-
   SOUTHWEST IOWA

CITY           SKY/WX    TMP DP  RH WIND       PRES   REMARKS
ATLANTIC *     CLEAR     50  45  81 CALM      30.23R
AUDUBON *      PTCLDY    48  43  81 NW3       30.23R
CLARINDA *       N/A     48  48 100 CALM      30.25S
COUNCIL BLFS * PTCLDY    55  43  62 NW6       30.25R
CRESTON *      CLEAR     54  45  71 NW6       30.22S
HARLAN  *      CLEAR     52  43  71 CALM      30.27R
LAMONI         PTCLDY    55  43  63 NW7       30.20S
RED OAK *      CLEAR     48  46  93 CALM      30.24R
SHENANDOAH *   PTCLDY    52  46  82 CALM      30.25R
$$

IAZ047>049-059>061-072>074-084-251000-
   CENTRAL IOWA

CITY           SKY/WX    TMP DP  RH WIND       PRES   REMARKS
AMES           PTCLDY    53  44  71 NW7       30.17S
ANKENY *       CLEAR     54  45  71 W7        30.18F
BOONE *        CLEAR     52  43  71 W9        30.17S
CHARITON *     CLEAR     52  46  82 W8        30.18S
DES MOINES     PTCLDY    54  45  71 NW7       30.18R
GRINNELL*      CLEAR     50  45  81 W3        30.17S
KNOXVILLE *    CLEAR     54  46  76 W6        30.16S
MARSHALLTOWN   PTCLDY    49  45  86 W6        30.15S
NEWTON *       CLEAR     54  43  66 NW7       30.16S
PELLA *        CLEAR     52  45  77 W6        30.18S
PERRY *          N/A     48  45  90 W8        30.19S
$$

IAZ004>006-015-016-023>025-035-036-251000-
   NORTH CENTRAL IOWA

CITY           SKY/WX    TMP DP  RH WIND       PRES   REMARKS
ALGONA *       PTCLDY    48  46  93 W9        30.17S
CLARION *        N/A     48  45  87 W8        30.16S
ESTHERVILLE    CLEAR     48  46  93 W8        30.16S
FORT DODGE *   PTCLDY    48  39  71 CALM      30.19R
MASON CITY     CLEAR     49  43  80 W9        30.15S
FOREST CITY *    N/A     50  37  62 W7        30.14S
WEBSTER CITY * PTCLDY    50  45  81 W8        30.15S
IOWA FALLS *     N/A     49  45  85 W7        30.17S
$$

IAZ007>011-017>019-026>030-037>042-050>054-066-251000-
   NORTHEAST IOWA

CITY           SKY/WX    TMP DP  RH WIND       PRES   REMARKS
CEDAR RAPIDS   CLEAR     48  46  93 W6        30.12S
CHARLES CITY * CLEAR     50  48  93 W8        30.12F
CLINTON *      CLEAR     51  50  96 W6        30.11S
DECORAH *      CLEAR     50  46  87 VRB3      30.09S
DUBUQUE        CLEAR     51  47  86 W8        30.10S
MONTICELLO *     N/A     50  48  93 CALM      30.11S
OELWEIN *      PTCLDY    48  46  93 W7        30.12S
WATERLOO       CLEAR     51  44  77 W8        30.12S
$$

IAZ064-065-067-068-078-251000-
   EAST CENTRAL IOWA

CITY           SKY/WX    TMP DP  RH WIND       PRES   REMARKS
DAVENPORT      CLEAR     52  49  89 W7        30.12S
IOWA CITY      CLEAR     52  45  77 CALM      30.14S
MT. PLEASANT * CLEAR     53  45  74 W7        30.15S
MUSCATINE *    CLEAR     54  46  76 W5        30.13S
QUAD CITIES    CLEAR     53  49  86 SW3       30.11S
$$

IAZ062-063-075>077-085>089-095>099-251000-
   SOUTHEAST IOWA

CITY           SKY/WX    TMP DP  RH WIND       PRES   REMARKS
BURLINGTON     CLEAR     54  47  77 NW5       30.14R
FAIRFIELD *    CLEAR     52  45  76 SW6       30.15S
FORT MADISON * CLEAR     57  46  67 NW5       30.15S
KEOKUK *       CLEAR     52  50  93 SW5       30.15R
OSKALOOSA *      N/A     50  45  81 W8        30.17S
OTTUMWA        CLEAR     50  47  89 W7        30.16R
WASHINGTON *   CLEAR     52  45  76 W7        30.15S
$$

ABBREVIATIONS USED IN REMARKS
   TC - TEMPERATURES IN CELSIUS
  WCI - WIND CHILL INDEX
   HX - HEAT INDEX
  VSB - VISIBILITY
$$





USA.gov is the U.S. government's official web portal to all federal, state and local government web resources and services.